{"data":{"norad_id":53130,"intl_designator":"2022-082C","name":"SUPERVIEW NEO-2 02","alt_names":[],"object_type":"PAYLOAD","status":"ACTIVE","operator":null,"country":"PRC","launch_date":"2022-07-15","launch_site_code":"TAISC","launch_vehicle":null,"mission":null,"orbit_class":"UNKNOWN","rcs_meters":null,"size_class":null,"mass_kg":null,"dimensions":null,"purposes":[],"wikipedia_slug":null,"has_3d_model":false,"image_url":null,"decayed_at":null,"tle_current":{"epoch":"2026-05-25T03:40:40.891584Z","epoch_age_seconds":55724,"freshness":"FRESH","line1":"1 53130U 22082C   26145.15325106  .00002701  00000+0  11275-3 0  9995","line2":"2 53130  97.3929 155.4656 0001680  89.3183 270.8247 15.24508958214703","mean_motion":15.24508958,"eccentricity":0.000168,"inclination_deg":97.3929,"raan_deg":155.4656,"arg_perigee_deg":89.3183,"mean_anomaly_deg":270.8247,"bstar":0.00011275,"rev_number":21470,"period_min":94.456644052071,"perigee_km":491.10610743241,"apogee_km":493.41456093669,"semimajor_km":6870.3973341845,"source":"CELESTRAK","updated_at":"2026-05-25T13:37:58.041535Z"}}}